Location: Saratoga Springs
(43.0831°N, 73.7850°W)
Time: 05:48:24
(UTC-04:00)

Vanguard 2 - Pass Details

Date: 18 April 2024
Orbit: 553 x 2914 km, 32.9° (Epoch: 17 May)

Event Time Altitude Azimuth Distance (km) Brightness Sun altitude
Rises 04:44:42 0° 251° (WSW) 6,384 - -14.7°
Reaches altitude 10° 04:48:46 10° 247° (WSW) 5,540 - -14.0°
Exits shadow 04:50:51 16° 245° (WSW) 5,125 11.0 -13.7°
Maximum altitude 05:05:42 58° 175° (S) 3,197 10.5 -11.3°
Drops below altitude 10° 05:20:52 10° 102° (ESE) 5,021 12.6 -8.8°
Sets 05:24:21 0° 98° (E) 5,778 13.1 -8.2°
